Regional Weather Roundup
Issued by NWS

Home | Current Version | Previous Version | Graphics & Text | Print | Product List | Glossary On
Versions: 1 2 3 4 5 6 7 8 9 10 11 12 13 14 15 16 17 18 19 20 21 22 23 24 25 26 27
000
ASUS45 KBOU 220107
RWRCO

WEATHER ROUNDUP FOR COLORADO
NATIONAL WEATHER SERVICE DENVER/BOULDER CO
600 PM MST TUE FEB 21 2017

NOTE: "FAIR" INDICATES FEW OR NO CLOUDS BELOW 12000 FEET WITH NO
SIGNIFICANT WEATHER AND/OR OBSTRUCTIONS TO VISIBILITY.

COZ001>005-013-030-031-220200-
...NORTHWEST COLORADO...

CITY           SKY/WX    TMP DP  RH WIND       PRES   REMARKS
CRAIG          FAIR      50  28  42 SW14G25   29.98F
HAYDEN         FAIR      46  21  36 W5        30.00F
MEEKER         FAIR      50  32  50 S15G24    30.03F
MOUNT WERNER   NOT AVBL
STEAMBOAT SPGS FAIR      45  24  43 SW6       30.00F
WALDEN         NOT AVBL
$$

COZ006>008-011-220200-
...WEST CENTRAL VALLEYS...

CITY           SKY/WX    TMP DP  RH WIND       PRES   REMARKS
GRAND JUNCTION FAIR      55  39  54 SE8       30.06F
MONTROSE       FAIR      55  29  36 SW18G28   30.13F
EAGLE          CLOUDY    48  30  49 W10       30.10F
RIFLE          FAIR      53  35  50 W8        30.05F
DELTA          FAIR      59  31  33 W6        30.14F
NUCLA          FAIR      54  32  43 SE3       30.21F
$$

COZ017>023-064>068-220200-
...SOUTHWEST COLORADO...

CITY           SKY/WX    TMP DP  RH WIND       PRES   REMARKS
DURANGO        FAIR      50  32  50 S3        30.25F
CORTEZ         FAIR      53  39  59 CALM      30.22S
PAGOSA SPRINGS FAIR      48  28  45 S3        30.29S
TELLURIDE      CLOUDY    45  15  29 NW6G20    30.32S
WOLF CREEK PAS CLOUDY    27  27 100 S23G33    30.41R WCI  12
$$

COZ009-010-012-014-032>034-037-058>063-220200-
...CENTRAL COLORADO...

CITY           SKY/WX    TMP DP  RH WIND       PRES   REMARKS
ASPEN          FAIR      47  19  33 VRB5      30.14F
BUENA VISTA    MOCLDY    48  11  23 W5        30.18R
COPPER MTN     CLOUDY    34  10  37 MISG      30.27S HAZE
BERTHOUD PASS  CLOUDY    27  16  63 W22G40    30.23F WCI  12
COTTONWOOD PAS CLOUDY    43  -2  15 SW10G21   30.24R
GUNNISON       FAIR      32  26  78 CALM      30.25S
KREMMLING      FAIR      50  28  43 SW13G21   30.07F
LEADVILLE      CLOUDY    35  10  35 VRB3      30.21S
MONARCH PASS   CLOUDY    28  19  69 W33G41    30.41S WCI  12
SALIDA         FAIR      51  18  27 SW7       30.26R
SUNLIGHT       NOT AVBL
WILKERSON PASS CLOUDY    34  14  44 SW12G24   30.28S WCI  25
$$

COZ069>075-220200-
...SAN LUIS VALLEY/SANGRE DE CRISTO MOUNTAINS...

CITY           SKY/WX    TMP DP  RH WIND       PRES   REMARKS
ALAMOSA        MOCLDY    46  26  45 SW10      30.22R
LA VETA PASS   FAIR      39  14  35 N20G30    30.30S
SAGUACHE       FAIR      45  28  53 CALM      30.21S
$$

COZ035-036-038>040-220200-
...NORTHERN COLORADO FRONT RANGE...

CITY           SKY/WX    TMP DP  RH WIND       PRES   REMARKS
DENVER INTL AP MOCLDY    64   2   8 W16G29    29.98R
DMNS CITY PARK   N/A     65   0   7 S8G17     29.99S
AURORA         NOT AVBL
FRONT RANGE AP MOCLDY    64   9  11 SW18      29.99R
ERIE MUNI ARPT FAIR      58  11  15 CALM      29.96S
BOULDER MUN AP FAIR      61  16  17 SW6       29.96F
CENTENNIAL     MOCLDY    59   7  12 SW15      30.03R
BROOMFIELD     MOCLDY    57  12  17 SW6       29.99R
FORT COLLINS   FAIR      61  18  18 SW22      29.93F
LONGMONT       FAIR      58  13  16 W6        29.97F
$$

COZ041-046-047-076>085-087-088-220200-
...PIKES PEAK/PALMER DIVIDE AND SOUTHERN FOOTHILLS...

CITY           SKY/WX    TMP DP  RH WIND       PRES   REMARKS
COLO. SPRINGS  FAIR      59   9  13 SW16      30.08R
A. F. ACADEMY  FAIR      56   2  11 W9        30.08S
SCHRIEVER AFB  FAIR      56   8  15 SW16      30.08R
ELLICOTT       FAIR     N/A N/A N/A W15       30.05S
FALCON         FAIR      55  -2   9 W12       30.10S
FORT CARSON    FAIR      58  13  16 SW10      30.06R
LIMON          FAIR      61   3  10 W9        29.99S
MONUMENT HILL  FAIR      52   7  16 W14G22    30.10S
TRINIDAD       FAIR      61  -5   7 W14       30.08R
$$

COZ042>045-048>051-090-091-220200-
...NORTHEAST COLORADO...

CITY           SKY/WX    TMP DP  RH WIND       PRES   REMARKS
GREELEY ARPT   FAIR      64   9  11 W22G30    29.92F
AKRON          FAIR      58  14  17 W12       29.92S
BURLINGTON     FAIR      59  18  20 S13       29.94R
WRAY           NOT AVBL
STERLING       FAIR      63  19  19 NW20G26   29.85F
HOLYOKE        FAIR      59  18  20 W8        29.88S
FORT MORGAN    FAIR      57  13  17 NW10      29.93S
$$

COZ086-089-092>099-220200-
...SOUTHEAST COLORADO...

CITY           SKY/WX    TMP DP  RH WIND       PRES   REMARKS
PUEBLO         FAIR      65   9  11 W10       29.99R
LA JUNTA       FAIR      62   8  12 W10       29.95S
LAMAR          FAIR      59  17  19 S9        29.91S
SPRINGFIELD      N/A     55  20  25 S8        29.99S
$$




USA.gov is the U.S. government's official web portal to all federal, state and local government web resources and services.